Printer-friendly version

IAU Minor Planet Center

Minor Planet Center

MPEC 2004-D06 : 2004 CP49

The following Minor Planet Electronic Circular may be linked-to from your own Web pages, but must not otherwise be redistributed electronically.


Read MPEC 2004-D05 Read MPEC 2004-D07


M.P.E.C. 2004-D06                                Issued 2004 Feb. 18, 15:04 UT

     The Minor Planet Electronic Circulars contain information on unusual
         minor planets and routine data on comets.  They are published
   on behalf of Commission 20 of the International Astronomical Union by the
          Minor Planet Center, Smithsonian Astrophysical Observatory,
                          Cambridge, MA 02138, U.S.A.

         Supported in part by the Steven and Michele Kirsch Foundation
             Prepared using the Tamkin Foundation Computer Network

                              MPC@CFA.HARVARD.EDU
          URL http://cfa-www.harvard.edu/iau/mpc.html  ISSN 1523-6714

                                   2004 CP49

Observations:
     K04C49P* C2004 02 14.48411 10 52 58.66 +05 14 13.6          20.2   ED006608
     K04C49P  C2004 02 14.49506 10 52 58.89 +05 14 42.9          19.9   ED006608
     K04C49P  C2004 02 14.50593 10 52 59.11 +05 15 11.4          19.6   ED006608
     K04C49P  C2004 02 16.45016 10 53 55.57 +06 45 12.8          19.8 V ED006691
     K04C49P  C2004 02 16.50936 10 53 56.96 +06 48 04.0          19.0 V ED006691
     K04C49P  C2004 02 16.53665 10 53 57.64 +06 49 22.9          19.1 V ED006691
     K04C49P  C2004 02 17.41248 10 54 23.37 +07 32 31.9          18.7 V ED006291
     K04C49P  C2004 02 17.41746 10 54 23.47 +07 32 46.9          18.7 V ED006291
     K04C49P  C2004 02 17.42186 10 54 23.58 +07 33 00.1          18.7 V ED006291
     K04C49P  C2004 02 17.91434 10 54 38.84 +07 57 52.9          18.8 R ED006493
     K04C49P  C2004 02 17.91506 10 54 38.87 +07 57 54.8          18.8 R ED006493
     K04C49P  C2004 02 17.91578 10 54 38.85 +07 57 57.3          18.8 R ED006493
     K04C49P  C2004 02 17.94899 10 54 39.41 +07 59 36.7                 ED006246
     K04C49P  C2004 02 17.95155 10 54 39.44 +07 59 43.7                 ED006246
     K04C49P  C2004 02 17.95240 10 54 39.45 +07 59 47.3                 ED006246
     K04C49P  C2004 02 17.95310 10 54 39.44 +07 59 49.5                 ED006246
     K04C49P  C2004 02 17.95486 10 54 39.48 +07 59 55.1                 ED006246
     K04C49P  C2004 02 18.20742 10 54 47.12 +08 12 57.7          17.9 R ED006H06
     K04C49P  C2004 02 18.20998 10 54 47.20 +08 13 05.8          18.0 R ED006H06
     K04C49P  C2004 02 18.21255 10 54 47.27 +08 13 13.7          18.1 R ED006H06
     K04C49P  C2004 02 18.26521 10 54 48.58 +08 15 58.3          18.7 V ED006291
     K04C49P  C2004 02 18.26906 10 54 48.67 +08 16 10.4          18.7 V ED006291
     K04C49P  C2004 02 18.27448 10 54 48.79 +08 16 27.1          18.7 V ED006291
     K04C49P 5C2004 02 18.34329 10 54 50.35 +08 20 00.1          19.0 R ED006673
     K04C49P  C2004 02 18.34457 10 54 50.27 +08 20 05.8          18.2 R ED006926
     K04C49P  C2004 02 18.34639 10 54 50.31 +08 20 11.5          18.4 R ED006926
     K04C49P 5C2004 02 18.34653 10 54 50.42 +08 20 10.3                 ED006673
     K04C49P  C2004 02 18.34822 10 54 50.36 +08 20 17.6          18.3 R ED006926
     K04C49P 5C2004 02 18.34988 10 54 50.49 +08 20 20.9                 ED006673
     K04C49P 5C2004 02 18.35289 10 54 50.55 +08 20 28.4                 ED006673
     K04C49P  C2004 02 18.37256 10 54 50.87 +08 21 33.5          19.0 R ED006854
     K04C49P  C2004 02 18.37476 10 54 50.83 +08 21 41.5          19.3 R ED006854
     K04C49P  C2004 02 18.37586 10 54 50.92 +08 21 43.2          19.1 R ED006854

Observer details:
246 Klet Observatory-KLENOT.  Observers M. Tichy, M. Kocer.  1.06-m KLENOT
    Telescope + CCD.
291 LPL/Spacewatch II.  Observer J. V. Scotti.  1.8-m f/2.7 reflector + CCD.
493 Calar Alto.  Observers M. Buchmann, M. Busch, F. Hormuth.  1.52-m
    reflector + CCD.
608 Haleakala-NEAT/MSSS.  Observers S. Pravdo, M. Hicks, K. Lawrence,
    D. MacDonald, P. Kervin, J. Africano, R. Maeda.  1.2-m reflector + CCD.
673 Table Mountain Observatory, Wrightwood.  Observer J. Young.  0.6-m
    reflector + CCD.
691 Steward Observatory, Kitt Peak.  Observer A. E. Gleason.  0.9-m f/3
    reflector + CCD.
854 Sabino Canyon Observatory, Tucson.  Observer J. E. McGaha.  0.356-m f/10.0
    Schmidt-Cassegrain + CCD.
926 Tenagra II Observatory.  Observers P. R. Holvorcem, M. Schwartz.  0.81-m
    f/7 Ritchey-Chretien + CCD.
H06 New Mexico Skies Observatory.  Observer R. Hutsebaut.  0.3-m reflector +
    CCD.

Orbital elements:
2004 CP49
Epoch 2004 Feb. 5.0 TT = JDT 2453040.5                  MPC
M 331.98825              (2000.0)            P               Q
n   0.30290834     Peri.   69.53889     -0.71410135     +0.67517320
a   2.1958124      Node   151.90960     -0.69275841     -0.71957619
e   0.4925024      Incl.   23.12595     +0.10072261     -0.16233069
P   3.25           H   19.4           G   0.15
From 33 observations 2004 Feb. 14-18.

Ephemeris:
2004 CP49                a,e,i = 2.20, 0.49, 23                  q = 1.1144
Date    TT    R. A. (2000) Decl.     Delta      r     Elong.  Phase     V
2004 02 15    10 53.23   +05 37.4    0.456    1.430   163.1    11.6    19.2
2004 02 25    10 57.94   +14 49.8    0.383    1.369   171.3     6.3    18.5
2004 03 06    11 03.34   +27 00.1    0.337    1.312   158.6    16.0    18.5
2004 03 16    11 11.76   +40 24.6    0.321    1.259   140.6    30.1    18.7
2004 03 26    11 26.69   +52 26.7    0.328    1.213   124.2    42.9    19.1
2004 04 05    11 52.81   +61 30.5    0.350    1.174   111.2    52.6    19.4
2004 04 15    12 33.72   +67 23.0    0.377    1.143   102.1    59.1    19.7
2004 04 25    13 28.1    +70 20.0    0.404    1.123    96.1    62.9    19.9
2004 05 05    14 26.9    +70 45.3    0.427    1.115    92.9    64.6    20.1
2004 05 15    15 18.47   +69 09.1    0.444    1.118    91.9    64.7    20.2
2004 05 25    15 57.76   +65 57.0    0.454    1.132    93.1    63.3    20.2
2004 06 04    16 26.32   +61 22.8    0.460    1.157    96.1    60.6    20.2
2004 06 14    16 47.20   +55 29.0    0.463    1.192   100.7    56.8    20.2
2004 06 24    17 03.33   +48 11.8    0.468    1.235   106.8    52.0    20.1
2004 07 04    17 17.06   +39 36.9    0.478    1.285   113.6    46.5    20.1
2004 07 14    17 29.79   +30 08.1    0.501    1.340   120.2    41.0    20.1
2004 07 24    17 42.54   +20 26.5    0.541    1.399   125.2    36.4    20.3
2004 08 03    17 55.93   +11 20.9    0.602    1.461   127.5    33.4    20.5
2004 08 13    18 10.13   +03 26.4    0.684    1.525   126.9    32.1    20.9
2004 08 23    18 25.25   -03 03.4    0.786    1.590   124.0    31.8    21.2
2004 09 02    18 41.23   -08 10.2    0.906    1.656   119.6    32.0    21.6
2004 09 12    18 57.91   -12 04.6    1.041    1.721   114.4    32.2    22.0

Timothy B. Spahr             (C) Copyright 2004 MPC           M.P.E.C. 2004-D06

Read MPEC 2004-D05 Read MPEC 2004-D07


Our Web policy. Index to the CBAT/MPC/ICQ pages.


Valid HTML 4.01!